User: anonymous
Location: Clatteringshaws Loch
(55.0508°N, 4.2860°W)
Time: 19:24:02
(UTC+01:00)
Language:

Sapphire - Orbit

View from above orbital plane
View from above orbital plane
View from above satellite
View from above satellite

Ground track
Ground track

The orbit data is extracted from the following two-line orbital elements,

1 26932U 01043D   14294.12050018  .00000290  00000-0  14397-3 0  7421
2 26932 067.0573 074.7826 0007978 288.1965 071.8267 14.30043592681654
Epoch (UTC): 21 October 2014 02:53:31
Eccentricity: 0.0007978
inclination: 67.0573°
perigee height: 786 km
apogee height: 797 km
right ascension of ascending node: 74.7826°
argument of perigee: 288.1965°
revolutions per day: 14.30043592
mean anomaly at epoch: 71.8267°
orbit number at epoch: 68165

The dashed part of the orbit path shows where the satellite is in the earth's shadow,  

DLR